This demonstration page uses our WeatherBlox Daily Observations layout. Learn more.

Left ArrowRight Arrow

39.12711, -84.51439

Hourly Observations for July 26, 2017

Temp ( °F °C ) Dew Point ( °F °C ) Humidity (%) Winds ( mph kmh ) Pressure ( in mb ) Visibility ( mi km ) Precip ( " mm )
12:53 am 00:53 Clear 64 17.8 63 17.2 96 96 N N/A 30.18 1022 10 16 N/A
1:53 am 01:53 Clear 63 17.2 62 16.7 97 97 N N/A 30.18 1022 10 16 N/A
2:33 am 02:33 Clear with Mist and Fog 61 16.1 60 15.6 97 97 E 3 6 30.18 1022 3 4 N/A
2:41 am 02:41 Clear 60 15.6 60 15.6 100 100 N N/A 30.18 1022 9 14 N/A
2:53 am 02:53 Clear 61 16.1 61 16.1 100 100 N N/A 30.16 1021 10 16 N/A
3:53 am 03:53 Clear with Mist and Fog 59 15 59 15 100 100 N N/A 30.16 1021 4 6 N/A
4:53 am 04:53 Clear 59 15 59 15 100 100 ENE 3 6 30.17 1022 9 14 N/A
5:53 am 05:53 Clear 59 15 59 15 100 100 NE 5 7 30.16 1022 10 16 N/A
6:53 am 06:53 Partly Cloudy 59 15 59 15 100 100 N N/A 30.15 1021 10 16 N/A
7:00 am 07:00 Partly Cloudy 58 14.4 58 14.4 100 100 N N/A 30.15 1021 10 16 N/A
7:53 am 07:53 Mostly Sunny 63 17.2 62 16.7 97 97 ENE 3 6 30.15 1021 10 16 N/A
8:53 am 08:53 Sunny 67 19.4 62 16.7 84 84 NE 3 6 30.17 1022 10 16 N/A
9:53 am 09:53 Sunny 70 21.1 65 18.3 84 84 N N/A 30.16 1021 10 16 N/A
10:53 am 10:53 Sunny 74 23.3 66 18.9 76 76 N N/A 30.14 1021 10 16 N/A
11:53 am 11:53 Sunny 78 25.6 65 18.3 64 64 N N/A 30.14 1021 10 16 N/A
12:53 pm 12:53 Sunny 81 27.2 66 18.9 61 61 VRB 3 6 30.12 1020 10 16 N/A
1:53 pm 13:53 Mostly Sunny 83 28.3 68 20 61 61 SSE 5 7 30.11 1020 10 16 N/A
2:53 pm 14:53 Sunny 83 28.3 66 18.9 57 57 N N/A 30.08 1019 10 16 N/A
3:53 pm 15:53 Sunny 84 28.9 67 19.4 57 57 S 6 9 30.06 1018 10 16 N/A
4:53 pm 16:53 Sunny 85 29.4 68 20 57 57 SSE 5 7 30.04 1017 10 16 N/A
5:53 pm 17:53 Partly Cloudy 84 28.9 70 21.1 63 63 S 6 9 30.02 1017 10 16 N/A
6:53 pm 18:53 Mostly Sunny 82 27.8 71 21.7 69 69 SE 5 7 30.02 1017 10 16 N/A
7:53 pm 19:53 Sunny 81 27.2 72 22.2 74 74 N N/A 30.01 1016 10 16 N/A
8:53 pm 20:53 Sunny 78 25.6 72 22.2 82 82 N N/A 30.01 1016 10 16 N/A
9:53 pm 21:53 Clear 75 23.9 72 22.2 90 90 N N/A 30.02 1017 10 16 N/A
10:53 pm 22:53 Mostly Clear 73 22.8 72 22.2 96 96 N N/A 30.02 1017 10 16 N/A
11:53 pm 23:53 Mostly Cloudy 73 22.8 72 22.2 96 96 NE 5 7 30.01 1016 10 16 N/A

Powered by AerisWeather